STARLINK-11130, 59950

Orbit data source: Space-Track

STARLINK-11130, 59950 is a payload satellite owned by SpaceX/Seattle (US) in LEO that was launched on Wed, 05 Jun 2024 UTC via an FALCON 9 launch vehicle from the Air Force Eastern Test Range (AFETR). Payload-class satellites include a variety of spacecraft equipped with specific instruments for various scientific and technological missions. These include communications satellites like Starlink; space stations such as the ISS; scientific satellites like the Hubble; Earth observation satellites from companies like Planet Labs, Umbra, and HawkEye 360; GPS; miniature CubeSats for education and research; and military/defense satellites.

Loading next visibility...
Identifier
59950, 2024-107F
Orbit
LEO
Last TLE update
12 hours ago
Origin
Manufacturer
SpaceX/Seattle
Mission
Operational spacecraft
Bus & Motor
STARLINK V2M, Unknown motor
Mass
730 kg wet, ~700 kg dry
Launch date (UTC)
2024-06-05 (1 year ago)
Launch vehicle
FALCON 9
Launch site
Air Force Eastern Test Range (AFETR)
Object type
Payload
Rocket body
Debris
Shape & HBR
Unknown
Radar Cross Section
Large (>1 m²)

Expand to show TLE details & history

TLE from 12 hours ago
0 STARLINK-11130
1 59950U 24107F   25181.93865864 -.00000462  00000-0  10367-5 0  9993
2 59950  53.1583  52.4507 0000802  86.3773 273.7337 15.69708066 62606
Epoch: 2025-06-30T22:31Z
TLE epoch observation values (Epoch: 2025-06-30T22:31:40.106Z)
Latitude
0.00001°
Longitude
155.29232°
Altitude
360.612 km
Speed
7.694 km/s
True Right ascension
03h 29m 48s
True Declination
0° 00' 00"
Sunlit
Object was in daylight at epoch
Visualization orbit readout
Latitude
-23.57452°
Longitude
133.83487°
Altitude
366.755 km
Speed
7.689 km/s
Apparent Right ascension
05h 21m 43s
Apparent Declination
-51° 18' 51"
Sunlit
Object is in daylight
Visualization observer readout
Local Sidereal Time
22:16:01
Azimuth
128.988° SE
Elevation
-39.526°
Doppler factor
1
Orbital elements
Apogee altitude
360.534 km
Perigee altitude
359.453 km
Semi-major axis
6,738.13 km
Eccentricity
0.00008
Inclination
53.1583°
RAAN
52.4507°
Arg. of periapsis
86.3773°
True anomaly
Unknown
Mean anomaly
273.7337°
Eccentric anomaly
Unknown
Mean motion
3.92405 °/min
Orbital period
91.74 mins
BSTAR
0.0000010367
Loading maneuver chart data...
Loading SW <> Apogee altitude chart data...
Loading historical data...
Loading historical data...
Loading historical data...
Loading historical data...
Loading historical data...
Loading historical data...
Loading historical data...

STARLINK-11130 Visibility forecast

Observer location: undefined°, undefined°

Span
Click to sort rows by Start time (UTC) header in descending order
Start Az.
Max El. time (UTC)
Max El. Az.
Max El.
End time (UTC)
End Az.
4 mins2025-07-01 18:36:32.530Z262.148° W2025-07-01 18:38:32.530Z343.084° N32.418°2025-07-01 18:40:32.530Z33.833° NE
4 mins2025-07-02 01:01:32.530Z298.252° NW2025-07-02 01:02:32.530Z271.125° WNW39.945°2025-07-02 01:05:32.530Z140.015° SSE
|